Flag Weather past 2 weeks in Sevilla, Spain

Now
63 °F

Clear.


Feels Like: 63 °F
Forecast: 56 / 71 °F
Wind: No wind

Location: Sevilla / San Pablo

Current Time: Nov 23, 2014 at 2:31:13 AM

Latest Report: Nov 23, 2014 at 1:30 AM


Visibility: 10 mi

Pressure: 29.74 "Hg

Humidity: 73%

Dew point: 54 °F

Location of SevillaLocation

Historic Weather in Sevilla — Graph

°F

Sevilla temperature yesterday

Maximum temperature yesterday: 73 °F (at 2:00 PM)
Minimum temperature yesterday: 59 °F (at 12:00 AM)
Average temperature yesterday: 65 °F

Past Weeks' High & Low Weather Summary

 TemperatureHumidityPressure
High75 °F (Nov 21, 2:00 PM)100% (Nov 8, 5:00 AM)30.09 "Hg (Nov 8, 5:00 AM)
Low43 °F (Nov 10, 7:30 AM)43% (Nov 9, 5:00 PM)29.62 "Hg (Nov 11, 7:30 AM)
Average61 °F78%29.91 "Hg
* Reported Nov 8 1:00 AM — Nov 23 1:30 AM, Sevilla, Weather by CustomWeather, © 2014

Note: Actual official high and low records may vary slightly from our data, if they occured in-between our weather recording intervals... More about our weather records

Advertising

Sevilla weather history for previous 24 hours

 ConditionsComfort  
Time TempWeatherWind HumidityBarometerVisibility
1:30 AM
Nov 23
63 °FClear.No wind73%29.74 "Hg10 mi
1:00 AM61 °FClear.No wind83%29.74 "Hg10 mi
12:30 AM61 °FClear.No wind83%29.74 "Hg10 mi
12:00 AM61 °FClear.No wind83%29.74 "Hg10 mi
11:30 PM
Nov 22
61 °FClear.No wind83%29.71 "Hg10 mi
11:00 PM61 °FClear.2 mph83%29.71 "Hg10 mi
10:30 PM63 °FClear.No wind73%29.71 "Hg10 mi
10:00 PM63 °FClear.No wind73%29.71 "Hg10 mi
9:30 PM61 °FClear.No wind77%29.68 "Hg10 mi
9:00 PM63 °FClear.1 mph68%29.68 "Hg10 mi
8:30 PM64 °FClear.2 mph60%29.68 "Hg10 mi
8:00 PM64 °FClear.1 mph64%29.68 "Hg10 mi
7:30 PM66 °FClear.3 mph56%29.68 "Hg10 mi
7:00 PM64 °FClear.7 mph68%29.68 "Hg10 mi
6:30 PM66 °FClear.8 mph68%29.68 "Hg10 mi
6:00 PM72 °FPassing clouds.8 mph44%29.68 "HgN/A
5:30 PM72 °FSunny.7 mph50%29.68 "Hg10 mi
5:00 PM72 °FSunny.6 mph50%29.68 "Hg10 mi
4:30 PM73 °FPassing clouds.10 mph47%29.68 "HgN/A
4:00 PM73 °FSunny.7 mph47%29.68 "Hg10 mi
3:30 PM73 °FSunny.9 mph50%29.68 "Hg10 mi
2:00 PM73 °FPassing clouds.10 mph53%29.74 "HgN/A
1:30 PM72 °FSunny.9 mph57%29.74 "Hg10 mi
1:00 PM70 °FPassing clouds.8 mph64%29.74 "HgN/A
12:30 PM70 °FPassing clouds.6 mph60%29.77 "HgN/A
12:00 PM70 °FSunny.8 mph60%29.80 "Hg10 mi
11:30 AM66 °FSunny.7 mph68%29.83 "Hg10 mi
11:00 AM64 °FSunny.9 mph68%29.83 "Hg10 mi
10:30 AM63 °FSunny.8 mph73%29.83 "Hg10 mi
10:00 AM63 °FSunny.13 mph73%29.83 "Hg10 mi
9:30 AM61 °FSunny.12 mph77%29.83 "Hg10 mi
9:00 AM59 °FSunny.9 mph77%29.83 "Hg10 mi
8:30 AM61 °FSunny.12 mph72%29.83 "Hg10 mi
8:00 AM61 °FClear.12 mph72%29.83 "Hg10 mi
7:30 AM61 °FClear.9 mph72%29.83 "Hg10 mi
7:00 AM61 °FClear.8 mph72%29.83 "Hg10 mi
6:30 AM61 °FClear.8 mph72%29.83 "Hg10 mi
6:00 AM61 °FClear.10 mph72%29.86 "Hg10 mi
5:30 AM61 °FClear.12 mph77%29.86 "Hg10 mi
5:00 AM61 °FClear.13 mph77%29.86 "Hg10 mi
4:30 AM61 °FClear.12 mph77%29.86 "Hg10 mi
4:00 AM61 °FClear.9 mph77%29.86 "Hg10 mi
Weather by CustomWeather, © 2014

See weather overviewHow to use our weather pages